Location: ??????
(41.3794°N, 22.5014°E)
Time: 22:30:58
(UTC+00:00)

CZ-2D R/B - Pass Details

Date: 30 November 2020
Orbit: 521 x 538 km, 97.4° (Epoch: 18 January)

Event Time Altitude Azimuth Distance (km) Brightness Sun altitude
Rises 16:24:27 0° 152° (SSE) 2,644 6.7 -15.2°
Reaches altitude 10° 16:26:36 10° 145° (SE) 1,763 5.7 -15.6°
Maximum altitude 16:30:13 43° 73° (ENE) 746 3.5 -16.2°
Drops below altitude 10° 16:33:53 10° 1° (N) 1,787 5.8 -16.9°
Sets 16:36:04 0° 355° (N) 2,685 6.7 -17.3°
